Location: Unspecified
(0.0000°N, 0.0000°E)
Time: 18:42:47
(UTC+00:00)

USA 125 - Visible Passes

Search period start: 03 December 2024 00:00
Search period end: 13 December 2024 00:00
Orbit: 363 x 39930 km, 64.0° (Epoch: 09 October)

Date Brightness Start Highest point End Pass type
(mag) Time Alt. Az. Time Alt. Az. Time Alt. Az.
03 Dec ? 21:21:46 10° SSE 00:52:18 66° NNE 07:16:13 10° NNW visible
04 Dec ? 21:15:05 10° SSE 00:48:03 66° NNE 07:11:03 10° NNW visible
05 Dec ? 21:08:25 10° SSE 00:43:47 65° NNE 07:05:48 10° NNW visible
06 Dec ? 21:01:46 10° SSE 00:39:31 65° NNE 07:00:28 10° NNW visible
07 Dec ? 20:55:07 10° SSE 00:35:15 65° NNE 06:55:01 10° NNW visible
08 Dec ? 20:48:29 10° SSE 00:30:59 64° NNE 06:49:30 10° NNW visible
09 Dec ? 20:41:51 10° SSE 00:26:42 64° NNE 06:43:54 10° NNW visible
10 Dec ? 20:35:15 10° SSE 00:22:26 64° NNE 06:38:12 10° NNW visible
11 Dec ? 20:28:39 10° SSE 00:18:08 63° NNE 06:32:26 10° NNW visible
